Location: Newark
(41.0400°S, 62.7845°W)
Time: 23:44:43
(UTC+00:00)

Courier 1B Rocket - Pass Details

Date: 01 December 2021
Orbit: 920 x 1202 km, 28.2° (Epoch: 20 January)

Event Time Altitude Azimuth Distance (km) Brightness Sun altitude
Rises 17:14:46 0° 294° (WNW) 4,088 8.6 65.3°
Reaches altitude 10° 17:17:57 10° 304° (WNW) 3,136 8.2 64.8°
Maximum altitude 17:24:39 31° 2° (N) 1,954 7.4 63.9°
Drops below altitude 10° 17:31:16 10° 61° (ENE) 3,096 7.6 62.9°
Sets 17:34:24 0° 70° (ENE) 4,028 8.1 62.5°
